User: anonymous   Login
Location: Wawayanda State Park
(41.1833°N, 74.4333°W)
Time: 13:09:01
(UTC-05:00)
Language:

Landsat 7 - Orbit

View from above orbital plane
View from above orbital plane
View from above satellite
View from above satellite

Ground track
Ground track

The orbit data is extracted from the following two-line orbital elements,

1 25682U 99020A   15032.17029793  .00000443  00000-0  10841-3 0   328
2 25682 098.2116 103.7975 0001103 081.3658 278.7694 14.57104418840336
Epoch (UTC): 01 February 2015 04:05:13
Eccentricity: 0.0001103
inclination: 98.2116°
perigee height: 702 km
apogee height: 703 km
right ascension of ascending node: 103.7975°
argument of perigee: 81.3658°
revolutions per day: 14.57104418
mean anomaly at epoch: 278.7694°
orbit number at epoch: 84033

The dashed part of the orbit path shows where the satellite is in the earth's shadow,  

DLR